Date String (YYYY-MM-DD hh:mm:ss) UTC,Instrument flags,Ambient pressure (hPa),Sample flow (lpm),Bypass flow (lpm),Sample temperature (°C),Ambient temperature (°C),ASC tube jacket temperature (°C),LED temperature (°C),Box temperature (°C),Sample RH (%),Span deviation,Mass concentration (μg/m³),Mass concentration (μg/m³),Mass concentration (μg/m³)
DateTimeUTC,F1_M11,P_M11,Q1_M11,Q2_M11,T1_M11,T2_M11,T3_M11,T4_M11,T5_M11,U1_M11,ZSPAN_M11,X0_M11,X2_M11,X1_M11
2022-01-03 02:00:00,,0828.9,5.01,0.00,26.4,25.7,00.0,35.4,28.1,06.5,0000.0,0000.12,0000.04,0000.00
2022-01-03 02:01:00,,0828.9,5.00,0.00,26.4,25.7,00.0,35.4,28.1,06.4,0000.0,0000.12,0000.04,0000.00
2022-01-03 02:02:00,,0828.9,5.01,0.00,26.4,25.6,00.0,35.4,28.1,06.3,0000.0,0000.12,0000.05,0000.00
2022-01-03 02:03:00,,0828.9,5.00,0.00,26.4,25.6,00.0,35.4,28.1,06.3,0000.0,0000.09,0000.04,0000.00
2022-01-03 02:04:00,,0829.0,5.01,0.00,26.4,25.6,00.0,35.4,28.1,06.4,0000.0,0000.09,0000.04,0000.00
2022-01-03 02:05:00,,0829.0,4.99,0.00,26.3,25.5,00.0,35.4,28.0,07.4,0000.0,0000.09,0000.04,0000.00
2022-01-03 02:06:00,,0829.0,5.02,0.00,26.3,25.4,00.0,35.4,27.9,07.8,0000.0,0000.06,0000.02,0000.00
2022-01-03 02:07:00,,0828.9,4.99,0.00,26.3,25.4,00.0,35.3,27.9,07.6,0000.0,0000.17,0000.03,0000.00
2022-01-03 02:08:00,,0829.0,5.01,0.00,26.2,25.3,00.0,35.3,27.9,07.8,0000.0,0000.29,0000.03,0000.00
2022-01-03 02:09:00,,0829.0,4.99,0.00,26.2,25.3,00.0,35.3,27.9,07.9,0000.0,0001.08,0000.03,0000.00
2022-01-03 02:10:00,,0829.0,4.99,0.00,26.2,25.3,00.0,35.3,27.9,07.9,0000.0,0001.43,0000.03,0000.00
2022-01-03 02:11:00,,0829.0,5.01,0.00,26.2,25.4,00.0,35.3,27.9,07.8,0000.0,0001.55,0000.03,0000.00
2022-01-03 02:12:00,,0829.0,5.00,0.00,26.2,25.4,00.0,35.3,27.9,07.7,0000.0,0002.83,0000.06,0000.00
2022-01-03 02:13:00,,0829.0,4.99,0.00,26.2,25.4,00.0,35.3,27.9,08.1,0000.0,0002.92,0000.06,0000.00
2022-01-03 02:14:00,,0829.0,5.01,0.00,26.2,25.4,00.0,35.2,27.9,08.1,0000.0,0002.91,0000.06,0000.00
2022-01-03 02:15:00,,0829.0,4.99,0.00,26.2,25.4,00.0,35.2,27.9,08.1,0000.0,0003.24,0000.06,0000.00
2022-01-03 02:16:00,,0829.0,5.01,0.00,26.2,25.5,00.0,35.2,27.9,07.9,0000.0,0003.32,0000.06,0000.00
2022-01-03 02:17:00,,0829.0,4.99,0.00,26.2,25.5,00.0,35.2,27.9,07.5,0000.0,0003.36,0000.07,0000.00
2022-01-03 02:18:00,,0828.9,5.01,0.00,26.2,25.5,00.0,35.2,28.0,07.9,0000.0,0003.59,0000.08,0000.00
2022-01-03 02:19:00,,0828.9,5.01,0.00,26.2,25.5,00.0,35.2,28.0,08.0,0000.0,0003.65,0000.09,0000.00
2022-01-03 02:20:00,,0829.0,4.99,0.00,26.2,25.5,00.0,35.2,28.0,07.6,0000.0,0002.91,0000.10,0000.00
2022-01-03 02:21:00,,0829.0,5.02,0.00,26.2,25.5,00.0,35.2,28.0,07.0,0000.0,0002.53,0000.10,0000.00
2022-01-03 02:22:00,,0829.0,4.99,0.00,26.2,25.5,00.0,35.2,28.0,06.8,0000.0,0002.37,0000.08,0000.01
2022-01-03 02:23:00,,0829.0,5.00,0.00,26.2,25.5,00.0,35.2,27.9,06.5,0000.0,0001.05,0000.05,0000.01
2022-01-03 02:24:00,,0829.0,5.00,0.00,26.2,25.5,00.0,35.2,27.9,06.3,0000.0,0001.02,0000.06,0000.01
2022-01-03 02:25:00,,0829.0,5.00,0.00,26.2,25.5,00.0,35.2,27.9,06.3,0000.0,0001.02,0000.06,0000.01
2022-01-03 02:26:00,,0829.0,5.00,0.00,26.2,25.5,00.0,35.2,27.9,06.1,0000.0,0000.67,0000.05,0000.01
2022-01-03 02:27:00,,0829.0,5.01,0.00,26.2,25.4,00.0,35.2,27.9,06.2,0000.0,0000.61,0000.05,0000.01
2022-01-03 02:28:00,,0829.0,4.99,0.00,26.2,25.4,00.0,35.2,27.9,06.2,0000.0,0000.57,0000.04,0000.01
2022-01-03 02:29:00,,0828.9,5.01,0.00,26.2,25.4,00.0,35.2,27.8,06.2,0000.0,0000.20,0000.03,0000.01
2022-01-03 02:30:00,,0828.9,5.00,0.00,26.2,25.3,00.0,35.2,27.8,06.2,0000.0,0000.08,0000.02,0000.01
2022-01-03 02:31:00,,0828.9,4.99,0.00,26.1,25.3,00.0,35.2,27.8,06.2,0000.0,0000.12,0000.02,0000.01
2022-01-03 02:32:00,,0828.9,5.01,0.00,26.1,25.3,00.0,35.1,27.8,06.2,0000.0,0000.12,0000.02,0000.01
2022-01-03 02:33:00,,0828.8,4.98,0.00,26.1,25.3,00.0,35.1,27.7,06.1,0000.0,0000.58,0000.03,0000.00
2022-01-03 02:34:00,,0828.9,5.02,0.00,26.1,25.2,00.0,35.1,27.7,06.1,0000.0,0001.39,0000.04,0000.00
2022-01-03 02:35:00,,0828.9,4.99,0.00,26.1,25.2,00.0,35.1,27.7,06.0,0000.0,0001.40,0000.04,0000.00
2022-01-03 02:36:00,,0829.0,4.99,0.00,26.0,25.2,00.0,35.1,27.7,06.0,0000.0,0001.44,0000.05,0000.00
2022-01-03 02:37:00,,0829.0,5.01,0.00,26.0,25.2,00.0,35.1,27.7,06.2,0000.0,0001.44,0000.06,0000.01
2022-01-03 02:38:00,,0829.0,4.99,0.00,26.0,25.2,00.0,35.1,27.7,06.5,0000.0,0001.44,0000.06,0000.01
2022-01-03 02:39:00,,0828.9,5.01,0.00,26.0,25.2,00.0,35.1,27.7,06.5,0000.0,0001.44,0000.06,0000.01
2022-01-03 02:40:00,,0829.0,4.98,0.00,26.0,25.2,00.0,35.1,27.7,06.6,0000.0,0001.45,0000.06,0000.01
2022-01-03 02:41:00,,0829.0,5.02,0.00,26.0,25.1,00.0,35.0,27.6,07.0,0000.0,0001.54,0000.07,0000.01
2022-01-03 02:42:00,,0829.0,4.98,0.00,25.9,25.1,00.0,35.0,27.5,07.1,0000.0,0001.80,0000.07,0000.01
2022-01-03 02:43:00,,0829.0,5.01,0.00,25.9,25.0,00.0,35.0,27.5,07.1,0000.0,0001.96,0000.08,0000.01
2022-01-03 02:44:00,,0829.0,5.00,0.00,25.9,25.0,00.0,35.0,27.5,06.8,0000.0,0001.48,0000.07,0000.01
2022-01-03 02:45:00,,0829.1,5.00,0.00,25.9,25.0,00.0,35.0,27.6,06.6,0000.0,0000.70,0000.07,0000.01
2022-01-03 02:46:00,,0829.0,5.00,0.00,25.9,25.1,00.0,35.0,27.6,06.6,0000.0,0000.68,0000.06,0000.01
2022-01-03 02:47:00,,0829.1,4.99,0.00,25.9,25.1,00.0,35.0,27.6,06.6,0000.0,0000.65,0000.05,0000.01
2022-01-03 02:48:00,,0829.0,5.00,0.00,25.9,25.1,00.0,34.9,27.6,06.5,0000.0,0000.65,0000.05,0000.01
2022-01-03 02:49:00,,0829.0,5.01,0.00,25.9,25.1,00.0,34.9,27.6,06.7,0000.0,0000.64,0000.05,0000.01
2022-01-03 02:50:00,,0829.1,4.99,0.00,25.9,25.1,00.0,34.9,27.6,07.0,0000.0,0000.64,0000.05,0000.01
2022-01-03 02:51:00,,0829.1,5.01,0.00,25.9,25.1,00.0,34.9,27.6,07.1,0000.0,0000.64,0000.05,0000.01
2022-01-03 02:52:00,,0829.1,4.99,0.00,25.9,25.1,00.0,34.9,27.6,07.1,0000.0,0000.51,0000.03,0000.01
2022-01-03 02:53:00,,0829.2,5.01,0.00,25.9,25.1,00.0,34.9,27.6,07.3,0000.0,0000.13,0000.02,0000.01
2022-01-03 02:54:00,,0829.1,5.00,0.00,25.9,25.1,00.0,34.9,27.6,07.2,0000.0,0000.03,0000.01,0000.01
2022-01-03 02:55:00,,0829.1,5.00,0.00,25.9,25.1,00.0,34.9,27.6,07.4,0000.0,0000.08,0000.04,0000.01
2022-01-03 02:56:00,,0829.0,5.00,0.00,25.9,25.1,00.0,34.9,27.6,07.5,0000.0,0000.07,0000.04,0000.00
2022-01-03 02:57:00,,0829.0,5.01,0.00,25.9,25.1,00.0,34.9,27.6,07.5,0000.0,0000.07,0000.04,0000.00
2022-01-03 02:58:00,,0829.0,4.99,0.00,25.9,25.1,00.0,34.9,27.6,07.6,0000.0,0000.07,0000.04,0000.00
2022-01-03 02:59:00,,0829.0,5.01,0.00,25.9,25.1,00.0,34.9,27.6,07.6,0000.0,0000.07,0000.04,0000.00
